Thompson, UT

3:53 AM MST on February 22, 2017 (GMT -0700)
Canyonlands

Weather History for KCNY - September, 2013

Change the Weather History Date:

Sunday, September 22, 2013

  Actual Average Record
Temperature  
Mean Temperature 60 °F 64 °F  
Max Temperature 71 °F 80 °F 95 °F (1953)
Min Temperature 48 °F 49 °F 37 °F (1955)
Degree Days  
Heating Degree Days 5 3  
Month to date heating degree days 6 25  
Since 1 July heating degree days 6 26  
Cooling Degree Days 0 2  
Month to date cooling degree days 170 107  
Year to date cooling degree days 1637 1273  
Growing Degree Days 11 (Base 50)    
Moisture  
Dew Point 50 °F    
Average Humidity 69    
Maximum Humidity 93    
Minimum Humidity 45    
Precipitation  
Precipitation 0.29 in 0.04 in 0.65 in (2006)
Month to date precipitation 1.06 0.71  
Year to date precipitation 4.96 6.09  
Sea Level Pressure  
Sea Level Pressure 29.62 in    
Wind  
Wind Speed 9 mph (ENE)    
Max Wind Speed 33 mph    
Max Gust Speed 38 mph    
Visibility 9 miles    
Events Rain , Thunderstorm    
T = Trace of Precipitation, MM = Missing Value Source: NWS Daily Summary

Daily Weather History Graph

Daily Weather History Graph

Search for Another Location

Airport or City:

Trip Planner

Search our weather history database for the weather conditions in past years. The results will help you decide how hot, cold, wet, or windy it might be!

Date:

Astronomy

Sep. 22, 2013 Rise Set
Actual Time 7:06 AM MDT 7:15 PM MDT
Civil Twilight 6:40 AM MDT 7:42 PM MDT
Nautical Twilight 6:09 AM MDT 8:13 PM MDT
Astronomical Twilight 5:37 AM MDT 8:44 PM MDT
Moon 9:10 PM MDT 10:28 AM MDT
Length of Visible Light 13h 01m
Length of Day
12h 08m
Waning Gibbous, 88% of the Moon is Illuminated
Sep 22
Waning Gibbous
Sep 26
Last Quarter
Oct 4
New
Oct 11
First Quarter
Oct 18
Full

Hourly Weather History & Observations

Time (MDT) Temp. Dew Point Humidity Pressure Visibility Wind Dir Wind Speed Gust Speed Precip Events Conditions
12:53 AM 64.9 °F 52.0 °F 63% 29.58 in 10.0 mi East 3.5 mph - 0.00 in   Scattered Clouds
1:53 AM 64.9 °F 51.1 °F 61% 29.57 in 10.0 mi Calm Calm - N/A   Clear
2:53 AM 64.0 °F 48.9 °F 58% 29.57 in 10.0 mi SSW 12.7 mph - N/A   Clear
3:53 AM 68.0 °F 46.0 °F 45% 29.55 in 10.0 mi SE 8.1 mph - N/A   Clear
4:53 AM 64.0 °F 46.9 °F 54% 29.55 in 10.0 mi Variable 3.5 mph - N/A   Clear
5:53 AM 63.0 °F 46.9 °F 56% 29.56 in 10.0 mi South 8.1 mph - N/A   Mostly Cloudy
6:53 AM 66.0 °F 46.9 °F 50% 29.55 in 10.0 mi SSE 11.5 mph - N/A   Mostly Cloudy
7:53 AM 68.0 °F 48.0 °F 49% 29.54 in 10.0 mi SSE 13.8 mph - N/A   Clear
8:53 AM 70.0 °F 50.0 °F 49% 29.53 in 10.0 mi SE 15.0 mph - N/A   Clear
9:14 AM 71.6 °F 48.2 °F 43% 29.69 in 10.0 mi SE 17.3 mph - N/A Thunderstorm Scattered Clouds
9:53 AM 66.0 °F 44.1 °F 45% 29.58 in 10.0 mi WNW 15.0 mph - N/A Thunderstorm Mostly Cloudy
10:49 AM 64.4 °F 46.4 °F 52% 29.68 in 10.0 mi NNW 13.8 mph - N/A   Mostly Cloudy
10:53 AM 64.9 °F 46.9 °F 52% 29.53 in 10.0 mi North 11.5 mph - N/A   Mostly Cloudy
11:07 AM 66.2 °F 44.6 °F 46% 29.67 in 10.0 mi North 10.4 mph - N/A Thunderstorm Overcast
11:17 AM 62.6 °F 50.0 °F 63% 29.73 in 1.8 mi Variable 4.6 mph - 0.09 in Rain , Thunderstorm Thunderstorms and Rain
11:27 AM 57.2 °F 51.8 °F 82% 29.70 in 5.0 mi NNW 8.1 mph - 0.10 in Rain , Thunderstorm Light Thunderstorms and Rain
11:53 AM 66.0 °F 53.1 °F 63% 29.51 in 10.0 mi North 5.8 mph - 0.10 in Thunderstorm Thunderstorm
12:21 PM 66.2 °F 53.6 °F 64% 29.63 in 10.0 mi ENE 8.1 mph - N/A   Scattered Clouds
12:31 PM 64.4 °F 53.6 °F 68% 29.66 in 10.0 mi South 4.6 mph - N/A Thunderstorm Thunderstorm
12:42 PM 62.6 °F 53.6 °F 72% 29.67 in 2.5 mi West 31.1 mph 38.0 mph 0.07 in Rain , Thunderstorm Light Thunderstorms and Rain
12:49 PM 60.8 °F 48.2 °F 63% 29.70 in 10.0 mi WNW 19.6 mph 38.0 mph 0.07 in Rain , Thunderstorm Light Thunderstorms and Rain
12:53 PM 59.0 °F 50.0 °F 72% 29.57 in 10.0 mi NW 18.4 mph 25.3 mph 0.07 in Rain , Thunderstorm Light Thunderstorms and Rain
1:00 PM 60.8 °F 51.8 °F 72% 29.67 in 10.0 mi NW 17.3 mph - 0.00 in Rain , Thunderstorm Light Thunderstorms and Rain
1:53 PM 61.0 °F 50.0 °F 67% 29.52 in 10.0 mi North 6.9 mph - 0.03 in   Mostly Cloudy
2:00 PM 60.8 °F 51.8 °F 72% 29.66 in 10.0 mi East 8.1 mph - N/A Thunderstorm Mostly Cloudy
2:33 PM 59.0 °F 51.8 °F 77% 29.67 in 10.0 mi East 10.4 mph - 0.01 in Rain Light Rain
2:53 PM 61.0 °F 54.0 °F 78% 29.51 in 10.0 mi ESE 11.5 mph - 0.01 in   Mostly Cloudy
3:53 PM 59.0 °F 53.1 °F 81% 29.51 in 10.0 mi East 12.7 mph - N/A   Clear
4:53 PM 59.0 °F 53.1 °F 81% 29.50 in 10.0 mi ENE 23.0 mph 31.1 mph N/A   Mostly Cloudy
5:37 PM 57.2 °F 50.0 °F 77% 29.68 in 10.0 mi North 19.6 mph 29.9 mph N/A Thunderstorm Mostly Cloudy
5:53 PM 55.9 °F 50.0 °F 80% 29.57 in 3.0 mi North 18.4 mph 36.8 mph 0.04 in Rain , Thunderstorm Heavy Thunderstorms and Rain
6:06 PM 55.4 °F 51.8 °F 88% 29.70 in 7.0 mi North 21.9 mph 29.9 mph 0.02 in Rain Light Rain
6:16 PM 55.4 °F 50.0 °F 82% 29.72 in 10.0 mi North 13.8 mph - 0.02 in Rain , Thunderstorm Light Rain
6:44 PM 55.4 °F 50.0 °F 82% 29.72 in 10.0 mi NE 12.7 mph - 0.04 in Rain Light Rain
6:53 PM 55.0 °F 48.0 °F 77% 29.61 in 10.0 mi ENE 12.7 mph - 0.04 in   Overcast
7:53 PM 54.0 °F 46.9 °F 77% 29.62 in 10.0 mi SE 4.6 mph - N/A   Clear
8:53 PM 53.1 °F 48.0 °F 83% 29.66 in 10.0 mi SE 5.8 mph - N/A   Clear
9:53 PM 51.1 °F 48.0 °F 89% 29.70 in 10.0 mi Calm Calm - N/A   Partly Cloudy
10:53 PM 52.0 °F 48.0 °F 86% 29.71 in 10.0 mi NE 3.5 mph - N/A   Mostly Cloudy
11:53 PM 50.0 °F 48.0 °F 93% 29.73 in 10.0 mi Calm Calm - N/A   Partly Cloudy